Location: Cahas Mountain Overlook
(37.0833°N, 80.1000°W)
Time: 19:34:38
(UTC-04:00)

SR - Pass Details

Date: 09 February 2026
Orbit: 572 x 849 km, 66.7° (Epoch: 12 March)

Event Time Altitude Azimuth Distance (km) Brightness Sun altitude
Rises 14:33:03 0° 348° (NNW) 3,049 ? 31.4°
Reaches altitude 10° 14:36:07 10° 9° (N) 2,188 ? 31.0°
Maximum altitude 14:39:23 17° 50° (NE) 1,802 ? 30.7°
Drops below altitude 10° 14:42:47 10° 91° (E) 2,301 ? 30.3°
Sets 14:46:06 0° 110° (ESE) 3,278 ? 29.9°
